Theta_e
311 316 320 320 321 324 325 325 327 325 323 322 322 325 327 328 328 325 320 319 318 317 318 318 319 318 317 318 319 321 321 321 322 324 323 322 322 322 322 322 322 323 323 322 323 323 325 323 319 321 320 312 313 314 313 314 316 317 323 326 325 328 328 325 323 316 318 321 315 315 317 318 317 317 317 318 319 320 321 320 322 325 323 323 324 322 321 325
310 312 317 320 319 321 324 325 326 326 324 323 321 322 325 327 328 327 323 320 319 319 319 319 319 318 318 319 321 322 322 322 323 323 322 321 322 322 322 322 322 323 322 322 323 322 326 324 317 320 320 314 314 315 316 316 315 319 324 323 326 332 325 320 319 314 315 318 315 315 317 317 318 317 317 320 322 322 323 324 324 324 322 323 325 324 322 324
312 310 312 317 319 319 322 325 325 326 325 325 323 319 323 327 327 328 326 321 319 319 319 319 319 318 319 321 322 323 323 323 323 322 321 321 321 321 321 321 321 323 322 322 323 324 326 322 314 315 319 316 314 314 316 317 316 317 318 321 329 327 319 316 315 314 315 315 314 315 316 316 317 318 317 319 321 320 323 326 325 325 322 322 325 325 322 324
313 311 309 313 319 319 319 322 325 326 325 326 325 320 322 326 326 327 328 324 320 319 319 320 320 319 319 321 321 322 323 322 322 321 320 320 320 320 320 320 322 323 322 322 322 324 327 325 317 314 316 314 312 313 315 316 317 316 315 321 325 317 316 317 314 314 314 314 314 315 316 316 316 317 317 318 320 320 319 321 323 323 320 320 324 325 322 323
312 313 311 310 316 320 318 319 324 326 325 325 325 322 322 324 325 325 327 327 324 320 319 320 320 320 320 320 321 322 322 322 323 320 319 320 320 320 320 320 322 322 322 321 322 324 326 327 322 314 313 313 312 313 313 315 316 317 317 317 317 314 315 317 314 314 314 314 315 314 316 317 316 316 316 318 320 320 318 319 318 318 318 318 321 323 322 322
311 312 312 310 312 319 319 317 321 325 325 324 325 324 322 322 324 324 326 328 327 324 321 320 319 320 321 321 322 323 321 322 323 321 321 320 319 319 319 320 321 321 321 321 322 324 324 322 319 314 312 313 313 314 314 313 314 320 321 315 315 315 315 316 315 315 314 315 315 314 316 316 316 316 315 317 319 319 318 319 318 318 318 317 318 321 321 321
311 312 312 311 311 316 319 318 319 322 324 325 325 325 323 322 323 325 325 326 328 327 324 322 321 320 321 323 324 324 322 321 321 320 321 321 320 319 319 320 320 321 321 322 322 324 323 317 315 313 313 314 313 314 314 312 313 319 320 315 316 315 314 316 315 315 314 315 315 314 316 315 316 316 315 315 318 318 318 318 318 319 318 318 319 319 320 319
311 311 311 312 311 314 318 318 318 319 323 325 326 326 324 322 323 326 325 325 327 328 327 325 323 321 321 323 324 324 323 321 320 319 320 322 322 321 321 321 322 323 322 322 323 324 322 315 313 313 313 313 312 313 313 312 313 316 318 316 315 315 315 316 315 314 314 315 315 314 315 315 315 315 313 315 317 317 317 317 318 318 318 319 319 319 320 319
310 311 311 312 312 312 315 318 318 317 320 324 326 326 325 323 323 325 325 324 324 327 328 326 325 323 322 322 323 324 323 321 319 319 320 321 322 322 322 322 323 324 323 324 323 324 323 315 312 313 313 312 312 313 312 313 314 313 315 314 313 315 315 315 314 314 314 315 315 315 314 314 314 314 314 316 317 317 316 316 316 317 318 319 319 319 319 319
308 310 311 311 312 312 313 317 318 316 317 320 325 326 325 324 323 324 325 324 323 325 327 327 326 324 323 323 323 323 323 321 320 319 320 321 322 322 322 323 323 324 323 324 324 324 323 317 313 313 313 312 312 312 312 315 315 311 312 313 312 313 314 314 314 313 314 314 314 315 315 313 313 313 315 316 316 316 315 315 316 316 317 318 318 318 319 319
307 308 310 311 312 312 312 314 317 316 316 316 321 326 325 325 324 324 325 325 323 323 325 327 326 324 324 323 323 323 323 323 322 321 321 321 323 323 323 323 322 323 324 325 324 323 323 319 314 314 313 312 312 311 311 314 314 311 312 312 312 312 313 313 313 313 314 314 313 314 314 313 313 313 315 315 315 316 315 315 316 315 317 317 317 318 319 319
306 307 309 310 311 312 312 313 315 317 317 314 317 324 325 324 325 324 325 325 323 322 324 325 326 325 324 323 323 324 324 324 324 323 323 323 324 324 323 322 322 323 324 325 322 318 319 318 314 315 314 312 313 312 312 312 312 312 312 313 314 313 313 314 312 313 314 314 313 313 314 315 315 315 315 315 315 315 314 316 316 315 317 317 318 319 319 318
307 306 307 309 310 312 312 312 313 317 318 315 315 322 325 324 324 324 325 325 324 322 322 323 324 324 324 324 324 324 325 324 324 324 323 324 324 324 323 323 324 323 325 326 320 314 315 316 314 314 314 312 313 313 312 311 311 314 313 312 315 314 315 314 311 313 314 313 313 313 316 319 317 314 315 315 314 314 315 316 316 316 317 317 319 319 318 318
307 307 307 308 310 311 312 311 312 315 319 316 314 319 324 325 324 324 325 325 324 323 322 321 323 324 324 324 324 324 324 323 323 323 323 323 323 323 323 324 324 324 325 324 318 313 314 314 313 313 313 312 313 313 313 312 313 318 314 312 315 316 319 316 310 312 314 313 313 313 315 319 318 314 314 314 314 314 315 316 315 316 316 317 318 318 318 318
307 308 307 307 309 311 312 311 311 314 318 317 315 317 321 324 325 324 326 325 324 323 322 322 322 323 324 323 324 324 324 323 322 322 322 324 323 323 324 324 325 325 326 322 314 312 313 313 313 313 313 312 312 313 314 315 314 316 314 314 315 314 321 320 310 311 315 313 312 313 315 317 316 314 313 313 313 314 315 315 316 316 316 316 317 318 318 317
306 307 308 307 307 310 311 312 311 312 317 316 315 316 318 323 325 324 326 324 323 323 322 322 322 323 323 324 323 323 323 323 322 322 322 323 323 321 323 324 324 324 325 322 316 313 313 313 312 312 312 311 312 313 314 314 314 314 313 318 319 314 318 319 311 310 312 313 312 312 316 318 315 312 312 313 312 314 315 316 315 315 316 316 316 317 316 317
306 306 308 308 307 309 311 312 311 311 315 316 315 316 318 323 325 324 325 325 323 323 322 323 322 322 323 322 321 321 322 323 322 322 322 323 323 320 323 325 325 325 324 321 317 314 313 312 312 313 313 312 312 313 314 314 315 314 312 315 319 316 315 316 314 312 310 312 314 313 314 317 316 312 311 313 312 313 314 315 316 316 316 316 316 316 316 317
307 306 307 308 307 308 310 311 311 310 313 316 315 315 319 322 324 325 325 324 323 323 323 323 322 323 323 320 320 322 322 323 323 322 322 322 323 320 322 324 324 324 322 317 314 314 314 312 312 314 313 313 312 312 316 316 314 314 313 313 315 314 313 315 316 313 311 313 314 314 314 315 315 312 311 312 311 312 313 313 314 315 316 316 316 316 316 316
308 308 307 308 308 308 310 311 312 311 312 316 315 315 320 323 324 325 324 324 323 322 323 323 322 323 324 321 320 322 322 322 322 322 321 321 322 322 323 324 324 323 319 314 313 313 313 311 312 314 314 314 312 311 315 316 314 315 315 314 316 315 313 316 317 313 311 314 314 314 314 314 314 314 312 311 311 311 312 312 312 313 314 316 317 317 316 316
308 308 308 309 308 308 310 310 311 312 312 316 315 315 320 323 324 324 323 324 323 323 323 323 322 320 320 321 320 321 321 321 322 322 320 320 320 322 324 323 322 320 316 314 314 312 313 313 313 314 314 314 312 311 313 313 312 314 314 313 315 316 314 315 317 313 310 313 315 313 314 314 314 314 312 310 310 310 310 311 311 312 312 314 316 316 316 316
308 308 308 309 308 308 310 310 311 312 313 316 315 316 321 323 324 325 323 324 323 322 322 322 322 319 318 321 320 320 320 320 320 320 319 318 319 320 321 320 318 316 313 312 312 311 313 313 313 314 314 314 313 311 311 311 311 311 313 314 313 314 314 314 315 313 311 312 316 314 313 313 313 313 311 309 309 310 310 311 311 312 312 313 314 315 315 315
308 308 309 309 309 308 310 310 311 312 313 316 315 316 322 324 323 324 323 323 321 320 321 321 321 317 317 320 320 320 320 318 318 318 318 318 318 318 318 317 316 315 312 310 312 312 312 313 314 312 312 314 314 311 310 311 311 311 312 314 314 314 313 313 314 314 311 312 317 316 313 314 313 312 311 308 309 311 312 312 312 313 313 313 314 314 315 315
309 309 309 309 309 308 310 310 311 312 314 317 316 315 321 323 322 323 323 322 320 317 319 321 318 314 314 317 319 319 319 318 316 316 318 317 317 317 317 316 316 315 312 311 312 313 313 314 312 309 309 313 313 311 310 311 311 311 312 313 315 314 313 314 313 313 312 313 315 315 314 315 313 312 311 309 309 311 313 313 312 312 313 314 315 315 315 315
310 309 309 309 309 308 309 310 311 313 315 317 315 313 320 323 321 322 321 319 318 315 318 321 317 313 314 316 317 318 318 319 317 315 316 316 316 317 317 316 316 315 312 310 312 313 314 312 310 308 310 314 313 311 311 310 310 311 312 313 316 317 315 313 313 313 312 312 313 314 315 317 316 314 314 311 309 309 310 311 311 312 313 314 314 314 315 315
311 310 309 308 309 308 309 311 312 313 315 317 315 313 319 322 320 322 320 318 317 315 317 320 317 314 315 316 317 318 317 317 317 316 315 315 315 314 315 315 316 316 313 311 312 313 313 310 309 311 312 312 312 312 311 311 311 312 313 313 314 317 316 314 315 314 313 315 315 313 315 323 325 320 316 315 313 311 309 308 309 312 313 313 314 314 315 315
312 311 309 309 309 308 310 313 313 313 316 318 316 313 317 321 320 320 320 319 318 315 316 320 319 316 314 315 316 316 317 317 317 317 315 315 314 313 314 313 314 316 313 310 311 313 313 310 309 312 312 312 313 311 312 312 310 311 314 314 314 315 316 317 316 315 316 317 314 312 315 323 323 319 318 318 317 317 312 308 307 310 312 312 313 314 314 315
313 312 310 309 309 309 312 314 313 314 318 318 315 313 315 318 319 319 319 320 319 315 316 318 319 317 314 314 314 316 318 316 315 315 314 314 314 313 314 312 311 312 310 309 312 312 312 310 310 313 313 312 312 310 312 312 310 314 318 317 316 315 317 320 317 316 319 316 314 314 316 317 315 316 318 316 317 320 317 314 311 308 310 312 312 314 314 314
314 313 311 310 310 310 311 313 313 315 316 316 315 316 316 316 318 319 318 320 320 315 315 316 316 316 314 313 314 315 316 315 314 314 312 312 312 311 312 311 311 311 308 310 314 311 310 312 311 312 312 311 310 311 314 312 311 317 320 318 317 317 319 320 316 317 317 315 317 318 314 314 318 321 320 315 314 317 318 318 315 310 311 313 313 314 314 314
315 314 313 311 310 310 310 312 314 313 313 314 315 317 318 318 318 317 318 320 317 313 315 316 315 315 313 313 313 312 312 313 315 313 311 311 311 310 311 310 310 310 309 310 315 312 309 311 310 309 311 311 309 312 315 313 311 314 317 319 319 320 320 317 316 318 315 313 318 319 314 313 321 327 322 314 313 316 318 318 314 309 311 313 313 314 314 315
314 315 314 312 311 311 311 313 313 312 313 315 316 317 318 318 318 319 319 319 315 312 313 314 314 314 312 312 311 311 311 313 313 312 311 311 311 310 309 310 309 309 310 310 314 314 310 309 309 309 310 309 310 311 311 311 311 311 315 319 318 321 322 320 323 322 314 314 318 320 317 312 317 325 320 314 316 318 316 314 313 310 310 312 313 314 314 315
315 315 313 312 311 311 313 315 314 314 315 316 317 317 317 317 318 320 319 317 315 313 312 313 313 313 312 312 312 311 312 312 311 312 311 311 312 309 308 310 309 310 312 311 313 313 310 310 310 309 309 309 311 312 310 311 311 312 321 321 316 322 323 321 325 321 314 316 316 316 315 312 314 321 319 316 318 318 313 313 315 312 311 313 313 314 314 314
315 315 313 312 310 310 313 314 314 315 316 316 317 316 317 317 318 320 318 316 315 313 312 314 314 313 313 313 312 311 312 313 312 312 311 311 312 309 309 310 309 311 311 310 313 313 313 315 312 309 310 310 312 313 313 314 313 315 321 318 315 319 317 317 321 318 316 316 312 312 314 312 313 316 317 316 313 313 310 308 312 311 311 313 313 315 315 315
315 314 312 311 311 311 312 313 314 316 315 316 316 316 318 318 318 319 317 315 315 313 312 314 314 313 313 313 312 312 312 313 312 312 311 312 312 310 310 311 310 312 313 311 313 313 315 317 314 312 311 310 312 312 313 316 314 314 316 315 317 319 314 315 317 314 316 317 312 310 313 315 315 315 317 316 311 312 310 307 309 310 311 313 313 315 315 315
315 313 313 311 311 312 312 313 315 316 316 316 316 316 318 319 318 317 315 313 314 312 312 314 313 313 313 313 313 311 313 313 312 313 312 312 313 310 311 312 310 314 316 313 312 313 314 316 314 313 312 311 312 311 314 319 315 314 316 316 320 322 318 317 317 318 321 319 313 310 313 319 319 317 318 313 309 310 310 310 310 310 311 313 312 314 314 315
314 313 312 312 312 312 313 314 315 316 316 315 316 317 319 320 317 315 314 313 312 312 313 313 313 314 314 313 312 311 313 314 313 313 312 312 312 311 311 310 309 313 315 312 312 312 312 313 312 310 309 311 312 311 313 317 315 315 318 317 317 320 323 320 317 322 324 320 316 312 315 322 319 315 314 309 308 310 308 309 310 310 312 312 312 314 313 314
314 313 313 313 313 313 313 315 316 316 316 316 317 318 319 319 316 315 314 312 312 312 313 314 313 314 314 313 312 312 312 313 313 313 313 312 312 311 311 310 310 311 312 311 313 313 311 312 313 311 309 310 311 311 312 313 314 314 314 317 316 315 322 321 313 314 317 315 317 314 315 321 317 314 316 313 313 314 310 309 308 309 312 311 311 314 313 314
313 313 314 314 314 313 313 315 316 316 315 316 317 318 319 317 315 314 314 312 312 313 313 314 314 314 313 312 312 313 313 313 313 313 312 312 313 312 311 311 310 310 311 311 313 314 313 313 313 313 313 310 307 310 311 310 313 315 314 316 316 313 319 321 314 315 315 314 320 318 314 319 317 317 324 320 314 316 316 313 309 308 310 310 311 313 313 314
314 314 315 315 314 313 314 315 316 315 315 315 316 317 318 316 313 313 313 312 312 313 314 315 315 314 314 313 312 312 313 313 312 313 312 312 314 313 311 311 310 309 310 310 312 315 316 315 312 312 313 311 308 311 313 310 309 313 314 313 314 315 316 316 314 316 314 313 322 321 314 316 317 318 325 318 313 317 316 314 313 311 309 310 312 313 313 314
315 314 314 314 313 314 314 314 315 315 314 315 315 315 316 313 312 312 312 312 312 313 314 315 315 314 313 313 313 312 313 313 312 312 313 312 314 313 310 311 311 309 308 309 314 314 315 318 315 311 311 312 313 313 315 314 310 310 311 310 313 318 318 317 315 316 315 314 320 320 314 317 317 316 320 317 315 318 315 315 318 312 309 311 313 313 313 314
315 314 313 314 313 313 313 313 313 314 313 314 315 315 314 311 311 312 311 312 313 313 314 315 314 314 313 313 313 312 313 313 311 312 313 312 312 312 310 311 312 310 308 311 316 315 313 317 317 312 310 312 315 315 314 315 314 312 313 312 312 313 316 318 315 316 320 319 319 318 314 319 321 315 315 315 314 315 315 318 318 310 309 313 313 313 314 313
315 313 312 314 313 313 313 312 313 313 312 313 313 313 313 310 311 312 311 312 313 313 313 314 314 314 313 313 313 312 313 312 311 312 312 312 312 312 311 310 311 310 310 312 316 315 313 316 317 315 313 314 315 314 312 313 314 314 314 313 313 315 316 316 313 315 318 317 319 318 312 318 322 314 312 314 314 313 312 313 314 310 310 313 313 313 314 313
314 312 311 313 313 313 313 312 313 312 310 312 313 312 311 310 310 312 311 312 312 313 312 313 314 313 313 313 313 313 312 312 312 312 312 312 312 312 311 309 309 309 310 313 314 313 314 318 318 316 315 315 314 309 305 308 313 314 314 313 313 314 316 315 314 316 315 312 315 315 312 318 324 316 311 311 311 309 307 307 309 310 311 313 313 313 313 312
313 312 311 313 313 313 313 312 312 312 311 312 312 311 310 310 310 311 312 312 312 313 313 313 313 312 313 313 313 313 313 312 312 312 312 312 311 311 310 309 310 310 311 314 313 312 314 318 319 317 315 317 318 312 307 308 312 314 314 313 312 313 318 323 324 321 317 314 314 313 311 318 327 319 309 306 306 306 306 306 307 310 311 312 312 313 312 311
311 311 311 313 313 313 312 311 311 312 312 311 311 311 310 309 310 311 312 312 312 313 313 313 313 312 313 313 313 313 313 312 313 312 313 313 310 309 309 309 311 311 311 313 312 312 315 316 317 317 316 317 318 316 312 312 312 314 316 314 313 315 317 319 319 315 314 317 317 313 312 317 324 319 309 307 309 307 306 308 309 310 311 311 312 312 311 311
311 311 311 312 312 312 311 310 311 312 312 311 311 312 310 309 310 311 312 312 312 313 313 313 313 312 312 312 313 313 313 314 314 312 313 313 311 308 308 309 311 311 311 312 310 312 319 319 315 315 316 315 315 315 314 314 313 313 315 313 312 314 314 314 316 314 313 318 317 313 314 318 320 316 312 313 315 313 310 309 309 310 310 311 312 311 311 311
312 312 312 312 312 312 310 309 310 312 312 312 311 312 311 310 310 310 311 312 311 312 314 313 312 312 312 312 313 313 313 315 315 314 312 313 314 311 308 309 311 310 311 311 309 314 321 319 314 314 314 312 314 316 316 317 315 313 315 315 313 315 315 318 321 316 313 317 316 312 314 316 315 314 315 315 316 318 315 309 307 309 310 311 313 312 312 312
312 312 312 312 312 312 311 308 309 311 311 312 312 311 310 310 311 310 311 311 310 311 313 312 312 312 312 312 313 313 313 314 314 314 312 313 316 313 308 309 311 310 311 310 310 316 321 316 313 315 314 313 318 321 318 317 315 314 315 316 316 315 315 316 316 313 314 316 314 314 315 315 314 316 318 316 316 318 314 307 307 310 310 311 313 314 313 313
311 311 311 312 312 312 311 310 308 309 310 312 313 312 310 311 311 310 311 312 311 311 312 312 312 312 312 312 313 313 313 313 313 313 313 314 316 313 310 310 310 310 312 311 310 314 317 314 313 315 313 312 318 322 319 316 314 314 314 314 314 314 314 314 314 313 314 314 313 315 316 315 316 318 319 315 312 312 310 307 308 310 309 310 312 312 313 313
309 310 310 310 310 310 311 311 309 309 310 312 313 312 311 310 311 311 312 312 311 311 312 312 312 312 312 312 313 313 312 313 313 313 312 314 315 313 312 312 310 310 311 312 312 312 313 315 315 314 312 312 315 318 318 316 315 315 314 313 313 313 313 313 313 313 312 313 316 317 315 316 319 319 319 313 307 307 308 308 309 309 308 309 310 311 312 312
309 310 309 309 309 310 311 311 310 310 310 311 312 312 311 310 311 311 312 312 311 312 312 312 312 311 312 312 312 313 312 313 314 313 312 313 314 313 313 313 312 310 310 312 312 310 312 315 314 313 312 312 313 314 313 314 315 315 315 313 313 313 313 312 312 313 312 313 314 314 313 316 316 313 312 308 306 307 308 308 308 308 307 309 311 311 311 311
309 309 309 309 309 310 311 311 311 311 310 311 312 312 311 311 311 311 312 311 311 312 312 312 312 311 311 312 312 313 312 312 313 312 311 312 312 312 312 312 311 311 311 312 312 311 312 313 311 312 314 312 311 312 312 311 312 313 314 314 313 312 312 312 311 312 312 312 312 312 312 314 314 312 310 307 305 306 306 308 309 308 309 311 311 312 312 311
309 309 309 310 310 310 311 311 311 311 311 311 311 312 311 311 311 312 312 311 310 311 311 312 312 311 311 312 312 312 312 312 312 311 311 311 311 311 311 310 310 311 312 312 314 315 315 313 311 313 315 311 309 311 313 312 312 313 313 312 311 311 312 312 312 313 312 311 312 311 312 315 315 314 313 312 311 308 307 310 311 310 311 312 312 312 312 311
Wind_Speed
38 36 30 32 38 40 39 38 41 42 40 42 42 36 34 36 35 35 34 32 31 32 30 31 34 34 34 33 32 30 29 28 25 24 23 22 21 22 22 20 18 16 12 11 12 12 10 8 9 9 9 5 4 4 2 3 5 2 2 2 2 3 4 4 6 6 3 3 7 13 18 14 7 12 14 7 10 15 15 11 12 18 11 7 9 7 19 26
36 39 34 31 35 40 41 40 40 43 42 41 43 40 35 36 37 36 36 35 33 32 31 32 33 35 35 34 34 31 29 29 27 28 28 26 24 22 22 21 20 18 14 14 14 14 13 10 7 8 12 7 2 2 2 3 6 3 2 2 3 4 4 4 5 6 4 4 7 14 18 16 13 18 16 7 8 12 10 8 11 15 13 12 11 12 22 25
33 38 38 34 32 37 42 42 40 43 45 41 42 43 38 36 38 37 37 37 37 34 32 32 32 33 34 33 32 28 27 26 26 31 32 30 28 27 26 25 23 22 17 14 15 15 14 12 6 5 11 9 2 3 4 1 4 3 2 2 5 6 4 4 4 6 7 7 6 13 17 14 15 20 17 9 8 8 9 11 13 15 16 15 14 17 24 26
31 34 39 37 33 34 39 43 41 41 45 43 41 43 42 39 37 38 38 38 39 37 35 33 32 32 33 33 31 28 25 19 24 34 34 31 30 29 28 26 23 23 20 16 17 16 15 16 11 8 9 7 2 2 4 2 3 2 3 3 4 3 3 5 4 7 8 8 9 12 12 10 15 19 16 12 8 5 13 21 21 21 21 18 17 21 25 28
32 32 36 38 36 33 35 41 41 39 44 44 41 42 43 41 39 38 38 39 40 39 38 35 33 32 31 31 29 27 20 7 14 29 31 31 31 29 27 25 22 22 21 19 18 15 13 15 15 12 8 5 2 1 3 4 2 1 4 7 7 3 3 7 5 7 7 7 9 11 10 11 16 15 17 18 11 10 20 26 24 23 21 19 19 22 26 29
33 33 34 37 38 35 34 39 40 37 43 46 43 42 43 42 41 39 39 39 39 39 38 37 35 33 30 29 26 25 20 7 0 5 14 24 29 29 28 26 24 24 23 22 20 16 13 14 18 15 9 4 2 3 4 4 2 3 5 8 11 8 7 10 9 8 7 7 12 13 10 14 16 10 16 22 19 17 20 22 22 20 19 18 19 22 26 28
33 33 34 35 38 38 35 36 40 37 39 45 46 43 43 43 41 41 41 40 39 39 38 37 36 33 30 27 24 24 26 20 6 6 4 12 22 27 28 27 26 24 24 24 22 20 16 18 19 16 11 4 2 5 4 6 3 4 3 5 9 10 10 12 13 11 7 8 14 13 9 13 16 7 9 21 25 19 13 16 20 19 18 19 20 23 25 26
34 34 34 35 37 39 38 36 39 39 36 42 46 44 43 44 42 41 42 41 41 39 38 38 36 35 32 29 26 23 27 32 24 14 5 7 11 19 22 23 24 23 24 25 25 24 20 20 20 16 10 4 6 8 2 3 1 3 3 8 10 10 12 12 11 9 5 7 10 10 6 10 13 5 5 18 24 18 12 13 18 19 20 20 21 23 25 26
34 34 35 36 38 39 39 38 38 39 37 38 44 45 44 44 44 42 42 42 42 40 39 38 36 35 32 32 29 21 28 35 31 28 18 7 6 9 12 15 20 24 24 24 25 25 24 24 23 17 10 7 9 8 2 2 2 2 4 12 13 13 12 10 8 4 2 7 9 9 4 5 9 3 6 18 22 19 15 13 18 22 22 22 22 24 25 27
34 35 35 36 39 39 39 40 39 39 40 38 40 46 46 45 45 44 43 42 42 41 39 37 36 35 33 34 26 14 27 34 29 30 28 23 18 15 16 17 20 25 25 23 24 27 28 27 25 17 10 9 9 6 3 5 3 5 8 14 17 17 13 8 6 3 3 5 9 10 3 2 6 2 6 14 16 20 18 15 20 23 25 25 24 25 25 26
36 36 36 37 39 39 39 40 41 41 41 40 39 45 48 45 45 45 43 43 43 41 40 38 36 35 34 34 25 16 26 31 27 29 30 30 28 26 25 22 21 26 26 25 26 27 28 27 26 18 7 7 8 4 3 5 2 6 10 12 14 13 12 9 5 4 4 2 7 8 2 1 1 2 11 12 11 18 20 18 20 24 26 26 25 25 26 26
38 38 38 38 39 40 40 39 41 42 42 43 42 44 49 46 45 47 44 43 43 41 40 38 37 36 33 31 31 28 28 27 25 26 27 28 27 26 22 20 21 26 26 26 26 26 27 25 26 19 7 9 8 3 2 4 1 5 5 4 8 7 7 10 5 4 5 1 3 6 1 4 2 9 17 13 12 18 19 18 20 23 27 27 27 27 26 26
38 40 40 40 39 40 41 40 41 43 42 45 44 42 47 48 46 47 45 43 42 41 40 39 37 35 30 25 31 35 28 23 23 20 19 20 22 23 20 19 22 25 24 26 26 25 25 23 24 18 11 12 8 4 4 3 3 2 2 1 4 5 5 7 4 3 4 2 5 8 2 6 7 18 21 11 13 19 19 19 20 22 26 28 29 29 28 27
40 41 42 42 41 40 42 42 42 43 42 44 44 41 44 48 47 47 47 43 42 41 39 38 35 34 31 22 25 34 29 21 20 19 17 16 18 19 17 20 25 26 24 25 26 24 23 21 19 15 12 11 7 5 3 3 3 2 2 2 1 2 5 5 3 6 4 3 6 8 3 7 8 17 19 13 14 19 23 23 22 23 25 29 30 31 30 29
42 42 43 45 44 42 43 43 43 44 42 43 44 42 42 47 48 48 48 45 43 40 38 37 36 33 25 19 22 30 31 25 21 20 19 16 18 17 17 26 30 30 29 27 26 24 23 20 14 11 9 7 6 6 2 2 1 2 3 2 1 4 5 6 3 9 6 3 6 7 3 7 9 11 12 15 16 19 25 26 24 25 26 29 31 32 32 31
46 45 45 46 46 45 44 45 45 45 43 43 44 41 40 47 52 50 48 48 45 40 39 37 38 34 17 12 21 24 27 31 25 20 18 16 17 17 21 31 30 29 28 24 24 23 22 18 10 9 8 5 4 4 3 1 2 1 2 3 2 4 3 4 2 8 6 3 4 4 2 4 6 5 4 11 18 20 24 25 26 27 27 29 30 31 32 32
48 48 47 47 48 48 46 46 46 47 45 43 45 41 37 46 56 53 48 49 43 41 43 40 41 34 14 9 19 24 28 33 30 24 19 17 17 16 23 32 29 26 24 20 20 21 20 16 8 6 6 4 3 5 5 6 5 2 0 2 3 3 3 2 2 6 6 3 4 4 4 7 7 5 1 4 12 19 23 26 27 27 28 29 30 31 32 32
49 51 50 49 50 50 48 47 47 48 47 45 46 42 36 41 51 52 50 49 44 42 40 38 38 23 11 19 27 30 35 35 34 29 22 22 20 17 24 31 30 26 21 15 13 16 17 12 5 3 3 3 3 5 7 6 6 5 3 3 3 3 4 4 3 4 8 4 5 6 5 11 12 12 11 5 6 15 24 26 24 25 28 30 30 32 32 33
51 52 52 51 52 52 51 49 48 49 48 47 46 42 37 42 50 52 54 53 44 32 22 32 42 17 11 33 37 34 38 35 33 31 26 26 23 20 25 30 31 28 20 10 7 14 14 6 4 4 5 6 6 8 7 6 8 8 6 5 4 4 4 5 4 4 7 6 5 8 7 12 13 13 15 10 5 11 18 22 23 24 27 28 30 32 32 33
55 55 56 55 55 55 53 51 50 50 49 47 47 42 38 39 34 32 49 57 49 35 24 43 54 21 7 31 38 31 31 30 32 33 29 28 27 24 25 25 25 20 14 8 6 13 14 6 6 7 7 10 9 7 4 2 5 6 4 5 6 6 5 5 3 4 3 5 6 8 8 12 13 10 12 10 7 9 14 18 23 26 26 27 30 33 34 35
60 60 60 59 58 58 56 54 52 51 51 48 50 46 42 39 21 19 44 49 49 43 30 47 55 24 10 28 41 36 28 23 28 33 28 28 29 22 20 21 16 9 7 9 8 10 12 8 7 6 5 8 7 6 3 4 4 2 3 4 6 6 5 5 3 4 1 3 4 3 5 12 13 11 11 9 6 11 17 19 23 27 27 27 29 33 36 35
66 66 66 64 62 61 58 56 53 53 52 49 53 49 46 48 35 38 47 32 39 40 28 43 45 23 17 27 41 43 32 21 20 29 29 28 27 18 17 16 11 6 6 8 7 6 7 8 8 8 7 7 6 6 6 5 6 5 3 3 4 4 3 4 3 3 2 2 3 1 3 10 13 10 10 11 11 16 24 25 25 26 26 28 31 34 36 35
72 72 71 69 67 64 61 59 55 54 54 53 57 55 47 40 37 52 44 19 22 23 22 40 30 16 23 27 36 43 34 25 22 31 35 33 29 24 20 14 9 9 7 7 8 8 7 8 11 12 10 10 7 7 7 6 6 6 4 4 4 3 2 2 3 2 2 1 1 1 2 7 10 7 8 14 19 22 28 28 26 26 25 29 32 34 35 35
75 76 75 73 70 67 64 60 56 56 57 56 59 63 54 32 31 54 37 10 6 5 19 42 27 17 26 27 33 37 29 24 26 33 38 36 31 26 21 16 12 9 9 11 11 10 6 5 13 13 8 10 9 8 9 7 6 7 6 6 4 3 4 4 2 0 1 2 2 2 3 5 7 7 7 10 11 17 24 23 25 28 29 32 32 33 35 35
74 78 78 76 72 70 66 59 59 59 58 59 60 63 58 34 32 53 32 7 3 4 15 36 26 19 28 29 32 33 25 20 28 38 40 38 34 24 16 17 14 9 11 11 9 8 6 6 15 12 6 10 10 9 11 9 6 6 6 7 6 5 5 3 1 2 1 3 1 1 2 5 5 6 8 7 4 9 15 13 21 29 31 34 35 37 39 39
70 77 80 79 74 72 65 58 62 61 56 60 61 60 60 42 34 45 25 4 4 5 9 25 23 19 26 30 35 35 20 13 28 44 43 39 38 28 16 12 9 9 12 10 4 4 4 7 11 10 8 9 9 10 11 10 7 5 6 8 9 7 5 4 4 3 2 4 3 1 4 6 6 5 7 5 5 9 10 8 17 27 30 33 37 40 42 42
64 75 81 80 76 74 67 59 61 63 57 58 58 58 63 54 42 38 17 2 6 8 10 19 21 21 24 28 39 30 11 14 25 36 43 41 38 31 19 10 6 6 9 7 3 3 5 8 7 9 10 7 8 8 7 10 8 4 5 9 10 7 7 7 6 5 4 2 2 2 3 4 5 6 5 3 5 9 10 9 14 23 29 32 35 38 40 41
58 72 80 80 78 76 72 64 61 66 63 58 57 57 62 66 54 33 9 4 7 8 10 14 16 25 27 28 35 18 8 24 21 21 40 38 30 26 15 12 11 9 11 10 7 4 7 11 11 11 11 9 10 8 7 10 7 6 5 8 8 7 7 7 7 5 1 1 4 3 3 3 5 7 4 3 4 8 10 10 11 18 26 28 31 34 35 38
56 68 78 80 77 76 74 65 62 69 67 61 58 54 61 68 53 22 3 4 6 5 11 16 15 23 27 24 22 10 10 23 14 18 37 30 23 20 11 14 15 11 13 14 9 4 5 14 17 13 10 9 8 5 8 12 6 5 6 7 5 4 4 4 6 4 1 2 7 6 5 4 5 6 4 2 3 6 9 9 10 16 21 22 24 27 27 29
56 66 77 79 76 76 72 60 60 68 66 63 58 55 64 59 34 12 8 5 5 4 12 17 15 21 27 19 13 10 9 11 14 24 29 21 20 17 12 18 16 10 9 10 8 4 1 7 14 9 7 8 7 3 5 9 7 6 6 6 6 5 4 3 2 3 2 6 7 6 5 3 4 6 4 4 5 7 8 8 9 13 15 14 16 20 20 20
58 69 78 79 78 78 69 55 58 64 62 60 59 61 55 31 11 8 10 6 5 6 11 14 15 19 24 18 12 13 7 5 17 25 18 12 12 10 11 14 10 7 6 7 6 2 5 3 5 2 3 8 8 3 1 3 7 8 5 4 4 2 2 3 3 2 4 7 5 3 3 3 5 6 4 6 7 7 8 9 9 9 10 9 9 11 14 15
62 74 79 80 79 77 71 61 61 63 60 59 65 61 35 11 6 6 7 7 5 7 10 14 17 17 20 18 13 13 8 5 15 20 15 12 9 8 10 9 8 8 7 8 5 1 1 1 2 1 3 8 8 4 0 2 4 6 4 6 5 0 0 2 2 2 5 5 2 2 2 3 7 6 7 11 10 10 11 12 13 12 11 10 7 7 9 11
68 76 79 80 76 74 72 66 64 66 62 62 62 43 17 8 9 5 7 6 5 8 12 16 21 22 22 20 14 12 8 7 14 16 15 13 9 8 7 6 11 8 5 8 7 5 4 5 3 2 3 8 11 8 4 2 4 7 5 6 6 3 4 6 4 1 4 4 2 2 1 3 5 4 11 15 15 18 18 18 20 20 17 15 10 8 8 8
72 76 78 77 73 72 69 62 62 66 68 64 46 21 13 12 5 8 9 5 6 12 13 16 21 22 21 16 13 13 7 5 13 15 14 12 9 9 6 8 13 7 5 7 6 8 9 4 5 6 2 7 11 8 7 7 5 5 4 5 5 5 6 6 3 3 4 3 2 2 2 4 3 3 9 13 15 19 20 21 24 24 24 23 19 13 11 9
74 75 77 73 70 69 65 60 61 66 72 58 27 10 14 11 4 9 10 5 9 13 12 15 19 19 14 9 10 12 6 4 11 12 10 11 11 12 10 11 15 9 7 8 4 5 10 6 3 0 2 7 7 4 6 10 5 4 3 5 5 5 5 3 3 5 4 2 2 3 3 4 4 6 10 9 11 15 17 18 19 21 24 25 25 22 16 13
75 74 73 67 67 67 62 61 61 68 69 43 14 11 13 6 6 8 8 10 14 16 16 15 14 14 11 6 9 10 4 5 11 9 8 10 10 12 11 9 13 12 9 9 3 4 9 4 3 2 3 4 5 4 4 5 4 2 3 5 6 3 7 4 2 0 3 3 4 2 3 4 3 7 11 6 6 9 11 11 13 18 18 19 24 25 21 17
72 70 66 61 66 66 61 61 64 71 62 29 11 12 8 4 9 11 12 17 20 21 21 15 11 14 13 8 10 13 8 7 10 8 8 9 8 13 13 9 14 18 14 10 3 2 6 2 3 1 4 1 3 5 1 1 4 4 4 7 3 2 3 4 2 1 1 4 4 1 3 4 2 4 7 7 7 10 9 7 10 13 13 15 21 23 21 19
67 65 59 58 66 64 60 62 67 70 47 17 13 12 6 6 10 13 17 20 21 20 17 13 12 14 15 13 12 15 15 11 10 9 9 8 6 13 18 12 15 20 17 11 5 2 5 3 4 1 3 1 2 5 2 1 2 4 5 5 4 3 3 1 2 3 3 4 5 3 3 4 5 5 5 6 9 11 9 7 6 8 12 17 20 21 21 20
60 49 39 52 66 60 61 66 69 59 28 10 14 10 5 7 9 17 25 23 19 16 14 12 11 12 15 18 17 18 18 14 14 11 9 10 6 10 20 13 8 16 17 12 6 3 4 4 2 2 0 0 3 3 7 5 1 2 1 3 2 3 5 3 3 4 4 4 4 3 4 4 6 6 6 10 11 9 9 7 6 10 17 19 20 19 20 19
50 28 18 49 65 58 65 67 54 35 12 8 13 8 8 9 9 22 34 30 19 14 14 13 13 13 15 17 16 16 14 13 16 12 7 11 7 5 17 15 7 12 13 7 5 4 3 3 3 1 1 2 1 4 7 8 5 2 2 5 2 0 2 2 1 2 4 4 3 2 5 6 5 6 10 14 14 11 9 7 7 12 18 21 20 19 18 18
43 16 13 50 63 61 67 49 24 13 5 8 11 8 11 11 10 22 34 34 22 10 11 14 16 16 16 18 16 13 12 10 13 11 4 10 10 4 13 19 12 12 11 7 5 5 2 3 6 3 1 3 2 3 2 4 5 6 5 7 5 3 3 2 4 2 2 3 4 3 6 7 5 6 10 13 13 10 8 7 7 11 15 17 18 19 18 16
34 7 18 54 63 66 58 22 5 8 5 8 9 8 10 9 13 20 25 28 19 5 5 11 14 13 11 15 17 16 14 10 13 14 6 11 14 7 11 21 21 19 14 7 4 4 3 4 5 2 3 5 3 2 2 2 2 3 4 5 6 5 5 6 8 4 1 1 2 3 5 8 5 5 8 11 9 6 4 7 10 13 14 13 12 15 16 14
22 8 30 59 66 69 45 7 6 12 4 6 9 8 9 9 14 20 20 20 13 4 6 8 10 11 9 10 13 14 13 10 13 13 5 7 9 5 13 26 28 20 11 6 5 5 4 5 4 1 2 3 5 4 2 1 1 2 5 4 6 6 5 5 5 4 4 4 3 1 6 7 4 3 4 9 10 8 8 8 11 14 14 10 10 13 14 13
20 20 36 56 68 66 31 3 10 12 5 7 6 6 7 5 13 20 19 17 11 8 10 9 11 13 11 11 14 16 14 9 10 9 3 4 5 7 21 33 30 19 11 10 11 9 5 3 5 4 2 2 4 4 2 2 3 4 4 3 5 4 5 4 2 3 3 6 7 5 8 6 4 5 2 5 7 9 11 10 12 14 11 8 10 13 13 14
19 18 28 47 65 55 20 7 14 11 10 11 7 8 8 5 12 21 21 17 11 11 11 10 14 15 13 14 13 14 12 6 6 7 3 4 3 4 21 35 30 19 13 14 16 12 5 3 5 7 7 7 8 6 5 5 3 1 1 3 4 5 7 5 3 3 4 5 7 7 8 5 5 6 3 4 4 6 9 10 12 13 10 8 8 10 12 14
13 8 13 26 43 38 15 12 17 11 12 15 8 8 10 9 11 19 22 13 5 9 8 7 13 13 12 17 14 12 12 5 5 7 4 5 3 1 15 32 30 21 16 19 24 15 3 2 6 8 11 13 10 6 4 7 6 5 4 6 5 6 7 5 4 5 7 2 4 11 10 5 5 4 4 7 5 6 8 7 8 10 8 7 9 10 11 12
11 8 10 12 18 19 10 9 11 8 11 15 10 8 13 14 9 13 19 10 4 11 7 4 13 13 13 19 14 13 15 7 6 10 8 7 3 4 9 20 22 22 19 19 25 15 3 3 9 10 14 11 5 5 5 9 12 14 12 12 11 11 10 8 9 15 8 5 8 12 10 9 8 6 8 9 6 6 7 5 5 6 6 8 11 11 10 11
9 9 19 21 12 7 8 11 10 9 11 12 10 10 16 17 14 14 13 7 9 14 7 5 14 17 20 23 16 13 16 9 7 11 9 6 5 5 6 5 8 20 20 14 16 11 3 7 9 9 11 6 2 5 8 9 9 10 14 16 14 14 14 14 20 23 13 9 11 6 10 10 9 7 9 8 5 5 4 3 5 6 7 10 11 10 9 11
8 7 13 19 13 7 13 18 16 15 14 10 7 10 16 18 18 15 10 8 10 13 11 12 17 20 23 23 16 15 17 14 12 13 13 13 11 9 9 3 4 12 14 9 8 6 4 8 7 9 11 5 1 5 8 10 7 6 12 16 13 13 17 20 26 24 16 14 9 5 4 6 6 7 9 7 4 4 2 3 6 8 10 10 7 7 10 14
15 17 15 10 7 9 15 18 18 16 13 10 8 9 13 18 20 15 10 12 15 14 14 19 23 24 26 25 20 19 23 24 21 19 18 18 14 12 11 8 6 7 8 8 6 3 5 7 6 8 7 3 1 3 4 6 8 8 11 13 13 15 19 23 25 19 13 14 8 3 5 7 5 7 8 6 5 4 5 7 8 8 9 6 5 10 14 16
20 29 31 18 7 8 12 12 15 16 12 11 10 11 14 18 21 15 6 7 15 18 19 23 26 22 21 25 24 22 26 28 24 23 24 23 19 15 9 6 9 10 7 7 6 3 3 3 4 6 7 5 2 4 3 4 4 3 8 13 19 21 21 22 18 13 13 15 10 6 8 6 5 8 8 4 4 7 10 11 9 7 7 6 9 13 17 19
24 28 34 22 9 10 13 12 13 14 13 12 10 10 14 17 18 16 7 2 7 14 17 20 22 17 15 22 24 24 28 27 23 24 27 25 19 15 12 12 16 16 10 5 3 3 5 5 3 6 8 4 1 5 6 7 4 4 10 17 22 21 19 15 10 11 15 12 9 12 11 6 6 7 8 5 4 8 12 13 11 10 9 11 15 17 18 20
Wind_Direction
229 230 231 229 224 219 217 217 219 220 219 220 220 216 213 210 209 207 205 206 209 209 209 211 210 212 217 220 222 220 220 226 234 231 225 227 230 231 236 238 240 239 244 270 274 270 258 234 259 240 204 239 274 262 269 201 208 211 124 116 199 193 194 186 176 192 185 217 205 185 181 175 178 186 185 177 170 165 167 185 187 190 201 196 194 174 176 180
227 228 231 233 229 222 218 217 218 219 218 218 219 217 215 211 209 208 206 205 207 210 210 213 214 217 221 224 225 224 223 227 235 236 231 231 231 233 237 242 245 239 243 266 271 273 260 226 240 241 215 226 304 302 290 190 198 213 120 145 222 201 203 205 196 208 219 247 209 188 184 185 188 180 177 175 170 165 165 185 183 191 195 177 181 176 178 182
228 226 228 233 234 225 220 218 219 220 218 217 218 216 215 212 210 209 207 205 206 208 210 213 214 216 218 218 219 219 220 225 235 237 234 233 233 236 240 247 248 238 239 261 265 263 248 213 191 197 209 223 275 326 330 164 190 229 162 199 241 220 241 265 258 253 253 256 212 189 189 192 189 179 179 181 172 182 190 185 179 190 189 176 177 178 181 185
231 226 226 230 234 230 223 219 219 221 218 217 216 214 213 212 210 210 209 206 205 206 209 211 213 214 215 215 216 218 220 229 243 240 236 234 235 237 240 244 242 234 234 252 261 253 235 216 205 186 187 201 211 307 308 228 198 231 173 206 243 199 262 277 278 305 283 249 218 190 182 191 185 178 183 170 152 229 221 199 194 195 188 180 178 178 183 187
232 229 226 227 231 231 227 222 219 221 219 217 216 213 212 212 211 210 210 209 206 206 207 210 213 214 216 216 217 217 214 230 252 246 243 236 236 237 239 239 235 233 232 243 252 243 228 217 209 199 187 184 162 146 258 250 231 261 248 258 272 237 255 284 296 329 303 235 206 183 176 186 179 181 190 176 170 221 217 207 205 203 196 192 187 181 185 189
233 232 228 227 228 229 229 224 221 222 219 218 218 214 212 213 212 210 210 210 208 206 207 210 212 214 216 215 217 210 203 201 130 264 249 232 233 236 236 236 234 237 237 238 241 235 221 203 199 196 180 163 154 176 225 276 252 228 272 273 279 267 249 281 296 314 302 215 192 184 186 181 171 193 200 191 202 215 217 215 211 208 207 207 198 188 188 192
235 232 231 228 227 229 229 225 223 223 219 217 218 215 212 212 211 208 210 210 209 207 206 209 211 213 214 209 210 205 206 214 200 24 343 214 225 232 232 235 235 238 235 231 231 225 212 195 192 186 171 154 177 195 250 307 261 207 261 289 288 278 261 276 292 302 289 223 200 186 187 184 180 198 202 207 216 217 227 221 211 210 207 206 202 197 197 197
238 233 230 229 229 229 228 227 225 223 220 216 216 216 213 210 208 207 209 210 209 208 206 207 209 211 211 207 203 202 214 222 225 255 298 143 195 223 225 231 234 236 229 227 226 216 204 192 186 179 171 161 168 181 241 332 232 172 255 289 289 278 271 275 285 300 277 220 200 186 195 197 194 198 216 224 221 217 231 223 211 210 206 205 206 206 203 200
241 236 230 229 230 229 228 227 226 225 222 217 215 216 214 209 208 207 207 210 209 208 206 205 207 208 210 210 204 207 226 229 229 237 238 195 186 217 223 232 234 231 225 223 221 211 200 192 187 185 179 163 164 176 166 161 169 75 298 294 293 280 281 282 274 291 249 206 190 193 212 196 197 219 257 239 226 218 226 224 214 211 208 207 210 211 208 204
243 239 233 229 229 229 228 227 227 226 224 221 215 214 214 208 206 206 207 209 210 209 207 205 206 205 206 207 200 215 235 233 234 232 232 235 239 250 255 258 245 228 220 214 211 207 200 195 191 184 174 163 166 169 161 181 181 11 330 307 296 279 277 283 266 248 224 210 197 197 198 190 195 201 258 244 228 218 220 222 217 213 213 212 211 214 212 212
243 242 238 231 228 229 228 227 227 225 225 224 219 216 215 209 205 205 206 209 210 209 207 206 204 203 204 203 199 217 232 232 237 233 234 239 242 251 255 259 245 222 214 208 206 206 203 202 194 184 166 159 162 155 173 185 180 353 340 315 298 281 268 263 257 233 216 221 210 193 170 299 155 208 242 238 220 215 217 220 217 213 214 215 213 213 214 216
243 242 241 235 229 228 227 227 226 225 224 223 222 219 214 210 205 203 205 207 208 208 208 206 205 203 201 203 208 218 228 233 236 235 237 239 240 245 254 259 237 214 208 205 201 202 203 202 196 189 167 156 157 134 177 165 87 351 360 320 299 308 279 247 235 222 204 212 199 158 119 293 262 233 239 238 222 215 215 220 217 213 213 214 214 214 215 217
243 240 240 237 231 228 227 226 225 225 224 222 223 220 212 208 205 203 204 205 205 206 207 206 205 201 196 203 217 221 225 233 236 236 234 235 237 240 249 247 221 205 205 203 196 194 197 198 195 187 161 162 170 146 148 121 83 36 88 146 292 323 297 238 203 193 188 192 169 148 208 266 244 238 236 236 230 214 210 218 216 214 214 214 215 216 218 218
243 239 238 237 233 228 226 225 225 225 223 220 220 220 214 208 206 203 202 204 202 203 205 205 203 196 197 208 220 220 219 224 233 231 225 224 221 226 231 214 199 195 199 201 195 190 188 186 187 178 159 169 180 154 128 48 86 104 129 155 214 247 277 267 185 154 159 217 178 149 224 252 249 249 238 232 233 215 209 215 216 217 216 217 218 218 221 221
245 241 236 237 234 227 225 224 224 224 221 219 217 220 218 211 207 201 200 205 204 202 201 200 198 190 195 213 218 219 216 216 225 225 226 222 208 209 202 191 190 191 195 197 192 186 178 175 178 176 167 168 167 162 143 11 51 117 168 206 186 194 262 305 206 169 169 208 174 150 217 259 265 266 244 225 223 214 212 215 217 219 219 219 220 221 224 225
248 243 236 235 233 228 225 222 222 223 221 217 215 220 221 214 209 202 200 203 202 199 194 191 191 188 189 210 210 215 212 212 219 218 220 219 210 209 190 184 187 188 193 197 192 188 180 177 189 195 182 164 149 148 145 197 241 176 175 218 210 185 240 313 248 198 183 138 175 181 217 264 268 264 233 217 217 212 214 219 220 221 223 223 223 224 226 227
248 244 238 233 232 229 224 221 219 220 221 217 214 217 219 211 205 201 199 199 198 195 193 190 189 190 196 200 199 207 207 209 213 209 207 207 208 208 188 183 185 186 189 189 190 192 186 185 200 204 189 175 151 142 166 202 215 210 148 228 228 200 207 245 269 220 184 147 207 204 222 246 253 264 251 208 219 213 215 224 224 224 226 227 227 227 228 230
246 243 239 232 230 228 223 221 217 217 219 217 214 211 216 212 203 198 193 191 189 186 191 188 181 186 210 200 198 205 206 207 208 205 202 196 198 207 196 188 187 184 177 171 180 185 186 195 202 195 183 172 159 169 187 196 189 186 175 193 231 233 219 228 254 206 172 163 211 191 225 253 260 272 264 246 224 218 221 227 230 230 230 229 229 229 231 233
243 240 238 231 228 226 223 220 215 215 215 217 214 208 214 213 201 196 186 178 177 178 182 175 175 186 215 197 197 203 206 207 202 201 199 189 188 196 195 190 185 176 165 158 180 181 178 187 197 200 196 187 191 192 193 175 166 177 180 178 196 214 232 232 246 232 178 163 210 200 214 246 249 260 258 247 235 229 230 233 235 236 235 233 232 232 234 235
240 237 235 231 226 223 222 217 214 214 211 214 212 205 211 202 191 189 176 173 179 181 175 174 180 188 171 183 190 193 196 200 197 195 196 191 184 180 180 178 170 167 166 156 173 182 176 184 208 205 197 193 194 181 183 203 175 171 177 191 200 208 236 234 237 282 201 170 223 215 215 247 248 253 263 255 245 242 237 236 237 237 237 236 234 234 235 238
239 236 233 231 225 220 220 215 213 211 208 211 207 203 209 198 188 173 165 172 187 186 180 180 184 187 155 174 187 186 174 178 193 190 190 189 180 171 168 164 153 164 178 146 142 171 179 201 213 202 195 189 180 145 152 250 249 213 193 207 217 213 235 242 237 310 319 177 250 243 218 254 257 256 268 262 239 245 240 234 236 236 236 237 237 237 238 241
237 234 231 229 224 218 217 214 211 209 207 209 206 205 209 202 196 178 164 167 187 189 187 182 183 188 174 175 190 191 171 157 178 183 184 182 175 170 164 161 156 164 164 143 137 154 186 216 206 190 176 162 166 151 160 221 248 248 214 196 224 219 256 284 286 326 9 176 271 321 205 255 264 259 264 251 233 246 247 241 242 239 237 239 239 240 241 243
234 231 227 225 222 216 215 212 208 208 206 206 205 207 210 203 189 177 167 150 175 191 188 177 176 170 162 163 180 185 172 160 168 177 183 181 175 175 165 160 167 161 162 173 168 169 197 218 193 182 164 156 178 175 168 205 235 240 212 187 221 198 182 277 293 325 23 77 216 146 238 267 272 272 269 250 239 247 252 251 251 249 245 246 244 244 245 245
230 226 223 221 218 213 211 209 206 208 206 205 206 206 207 204 179 172 164 109 133 188 180 177 172 148 153 159 170 174 169 168 171 173 179 176 168 171 168 163 162 165 184 185 177 184 208 198 172 167 161 168 182 190 189 203 225 236 219 196 203 185 196 232 274 311 352 348 105 93 330 295 267 269 269 256 245 248 254 252 252 251 247 249 250 248 248 247
223 221 219 217 214 210 208 206 205 206 205 206 208 205 204 202 179 171 160 76 105 140 174 180 177 152 153 162 167 167 164 172 179 175 175 174 166 161 163 165 165 182 191 174 171 196 221 188 166 161 172 176 183 202 201 197 211 239 229 198 193 203 214 217 161 98 28 288 290 85 287 282 286 274 253 260 288 263 258 250 247 250 247 246 247 246 247 247
217 215 214 212 210 206 202 202 203 202 202 205 207 204 203 201 186 173 160 62 184 164 170 179 180 165 156 158 160 160 161 181 187 180 176 179 176 163 153 163 174 187 175 158 162 202 207 184 168 171 180 178 195 213 205 190 192 237 225 190 192 206 200 175 158 152 192 248 284 90 205 257 306 282 247 271 311 278 270 261 251 251 248 245 244 246 247 247
211 210 209 207 204 199 195 197 199 198 199 202 203 202 203 205 194 174 162 317 196 166 159 170 176 170 161 160 158 157 162 166 174 180 177 178 179 171 164 169 169 167 153 141 189 209 161 159 172 184 180 187 210 213 203 180 175 236 220 172 176 186 186 185 175 191 217 231 311 36 165 236 276 256 258 319 308 283 279 272 259 252 248 247 247 249 250 250
206 205 204 203 200 196 194 195 195 195 197 199 199 198 200 205 197 176 171 257 169 139 151 163 168 164 161 161 159 155 154 154 157 183 178 173 173 171 172 178 165 152 156 162 190 197 157 173 185 182 185 206 207 194 171 166 184 239 198 148 164 170 174 182 174 196 234 149 258 261 154 209 261 267 298 346 273 275 275 263 256 251 247 247 250 252 254 255
202 200 200 198 195 194 195 194 192 194 196 196 195 188 182 187 186 172 224 236 139 124 155 155 159 157 152 153 161 168 162 158 154 173 174 171 170 172 178 180 162 141 169 185 191 186 188 194 186 175 190 207 193 178 167 171 199 216 148 102 88 94 101 138 159 161 115 210 229 218 180 213 265 272 285 311 255 257 265 262 253 254 253 251 253 254 256 258
201 198 196 192 189 190 192 193 194 193 193 192 191 176 163 166 170 174 222 193 115 169 160 152 162 157 148 147 165 184 173 153 138 152 168 174 170 167 161 165 155 134 177 203 200 204 319 186 179 177 202 191 168 161 174 179 170 129 111 79 58 48 63 75 101 109 138 235 239 220 197 211 268 266 242 225 225 222 239 261 261 260 264 266 263 260 258 261
200 195 192 188 185 186 187 190 193 190 188 188 182 168 160 158 164 195 199 152 102 178 162 149 161 158 153 153 161 173 170 128 141 148 161 174 166 148 136 152 154 136 173 208 209 276 16 107 176 208 195 163 150 157 141 168 155 127 101 107 94 10 38 46 4 79 194 237 262 255 195 172 239 253 242 233 238 228 228 248 257 264 281 292 286 270 261 258
196 190 188 187 185 185 186 188 188 185 185 180 168 162 161 166 195 188 168 154 155 179 164 150 157 158 156 156 159 164 151 131 157 157 160 170 172 164 159 168 167 153 185 199 182 3 17 218 258 312 197 168 151 164 106 39 162 150 120 135 145 317 131 197 246 200 224 241 272 263 176 201 238 250 261 258 257 250 235 232 243 257 275 295 311 296 277 261
190 185 184 186 185 185 188 189 185 182 180 173 165 162 164 191 195 148 125 160 164 161 161 155 159 159 156 159 165 159 140 148 166 163 166 168 165 178 183 175 168 165 184 176 154 163 206 287 281 179 223 191 169 177 189 165 178 170 151 156 167 154 168 207 231 256 253 255 270 254 201 251 272 261 245 246 250 251 248 246 252 258 264 276 294 296 285 271
184 182 181 183 185 186 189 188 184 181 176 170 169 170 178 189 179 116 134 163 143 150 161 160 157 156 157 161 160 152 137 158 171 165 166 166 162 182 190 182 184 169 112 149 165 177 187 243 221 182 199 185 179 191 169 136 155 188 161 145 164 170 178 204 211 201 226 252 276 261 203 205 206 235 238 242 258 263 260 257 256 258 259 264 270 272 270 266
180 179 179 180 184 187 189 188 184 179 173 170 173 193 187 182 139 132 148 148 143 150 156 155 149 149 156 151 144 153 141 152 172 165 166 173 175 182 182 187 191 167 130 167 187 178 188 220 252 162 113 154 169 193 138 122 155 210 141 139 193 191 152 151 191 184 178 200 251 225 225 212 204 274 274 258 263 267 263 259 254 253 255 256 257 256 254 253
175 175 176 178 183 186 188 187 183 177 173 170 179 203 191 169 140 148 145 147 154 150 145 148 148 150 154 137 148 162 129 135 165 163 172 183 184 186 187 190 187 176 168 170 151 168 184 212 311 27 83 132 147 160 145 142 177 173 135 191 223 165 115 122 211 128 103 202 246 206 244 290 303 286 288 288 276 268 259 251 244 244 249 250 245 242 242 244
170 171 173 177 183 187 186 182 179 176 174 176 193 192 184 158 149 145 147 156 159 153 149 153 163 162 156 148 165 168 140 135 168 173 170 179 192 192 193 194 186 190 190 168 151 211 161 122 319 106 112 138 123 122 102 90 146 143 182 202 195 97 103 120 174 353 90 222 268 241 225 273 266 254 298 322 288 268 259 240 240 246 244 241 236 231 234 239
166 167 171 177 184 187 183 178 175 174 175 184 187 175 168 170 158 152 154 156 158 160 158 158 163 165 161 160 168 170 160 156 174 179 168 181 215 195 189 195 189 192 190 163 150 221 147 115 315 5 128 230 70 116 158 317 138 160 192 180 142 175 211 143 155 192 190 225 274 305 266 247 205 216 292 295 253 251 257 243 236 244 233 230 230 225 227 230
161 162 169 178 183 184 180 174 171 172 178 191 180 172 160 159 155 161 158 150 153 162 164 164 164 164 168 167 165 169 173 170 170 175 174 183 217 198 187 191 188 188 186 167 163 192 141 133 260 304 143 314 26 138 190 211 191 56 99 174 155 174 188 177 164 171 181 214 245 296 302 253 214 204 222 247 246 240 247 240 222 227 226 227 230 225 223 226
158 156 165 178 182 182 176 172 169 172 186 184 175 165 152 151 153 164 161 155 158 169 171 168 165 165 169 168 164 168 176 171 168 177 185 180 192 212 191 187 170 172 172 147 143 166 120 130 177 299 350 152 181 214 197 188 180 144 154 187 198 72 150 173 179 131 145 185 196 245 272 255 234 201 202 228 243 235 224 222 225 231 228 230 233 229 227 231
157 152 165 176 180 175 170 170 172 176 180 176 178 163 156 154 149 163 165 163 165 177 177 170 170 170 166 164 165 166 167 162 170 180 189 183 189 216 195 184 162 153 154 132 146 172 152 142 151 135 159 178 221 264 207 180 181 175 181 187 178 145 110 160 232 217 116 175 177 186 255 260 235 201 202 217 233 236 220 208 228 244 239 240 241 235 233 238
157 156 168 174 176 169 166 169 179 172 182 179 167 146 148 142 144 159 167 168 170 173 165 168 170 165 162 167 166 164 162 160 175 183 190 195 196 206 189 171 154 153 160 150 156 165 105 98 118 130 203 204 262 300 178 194 167 152 199 193 171 170 152 172 219 221 127 231 156 137 262 268 246 205 208 222 237 259 246 213 228 248 249 251 246 231 227 232
158 142 161 172 174 168 165 170 174 175 203 165 147 143 146 142 153 158 162 170 174 151 145 160 159 154 163 169 159 158 160 160 177 181 173 188 194 188 168 157 150 156 163 147 151 163 137 111 106 48 314 303 319 337 39 31 70 183 235 195 165 194 175 163 197 179 174 213 162 158 262 263 281 293 238 245 261 273 266 243 241 251 252 246 226 212 215 221
146 135 154 170 173 170 168 174 171 173 173 150 149 158 139 131 159 157 160 172 173 156 156 159 161 162 164 160 158 166 166 161 180 180 145 163 180 167 162 158 157 164 177 179 174 172 175 142 125 129 74 13 333 325 299 258 200 200 220 170 165 160 112 115 151 126 205 217 170 194 245 241 278 317 288 254 269 271 264 252 244 247 248 234 210 205 213 217
133 137 155 167 172 174 176 176 169 163 160 159 166 168 137 119 166 163 161 167 170 166 163 163 166 160 152 152 155 168 168 149 163 167 112 129 157 166 164 164 168 175 180 172 158 151 158 152 149 154 159 185 204 213 218 203 185 205 118 127 155 135 133 159 126 118 236 222 166 204 238 246 295 322 307 254 261 269 262 242 228 230 229 218 206 208 214 212
138 148 157 164 174 180 182 174 172 161 159 159 161 179 157 140 167 170 163 162 167 162 151 149 156 144 144 155 150 165 174 128 111 147 126 137 150 276 173 170 174 176 166 153 149 144 112 142 173 181 190 201 200 189 153 122 138 202 181 145 152 163 172 156 122 204 225 161 205 230 218 215 271 289 249 240 230 240 252 237 221 221 214 210 209 210 211 207
153 162 166 162 173 179 170 166 174 166 162 159 156 178 168 153 158 170 170 172 158 149 127 123 155 149 156 161 152 168 175 134 112 151 151 147 112 23 167 175 176 169 154 149 153 143 79 189 192 200 208 208 178 162 158 147 176 195 184 173 177 183 180 164 198 224 200 133 240 234 180 186 237 242 227 231 224 232 250 248 227 216 205 211 212 206 206 210
165 163 171 169 161 166 165 160 164 167 169 164 157 169 169 163 161 168 173 171 156 154 134 139 166 164 164 165 159 167 169 152 148 160 153 149 127 104 149 190 191 166 152 154 166 150 132 204 199 200 213 218 112 164 173 169 186 184 181 191 189 181 182 189 216 222 194 187 235 204 147 187 220 227 229 229 224 238 260 243 215 211 214 216 210 206 217 226
150 129 159 166 159 157 160 155 157 169 176 171 162 172 171 166 166 170 168 156 164 171 159 159 172 169 167 169 164 162 170 170 174 175 169 164 157 145 152 176 220 177 158 159 182 167 169 195 185 184 203 218 185 194 179 166 163 158 185 197 189 187 195 206 222 224 210 219 227 104 103 235 225 222 232 233 232 242 256 225 207 211 217 213 210 229 241 240
159 156 153 145 139 155 157 156 160 167 177 182 178 175 173 171 172 172 170 166 171 177 170 170 176 174 170 172 170 174 182 180 179 178 169 165 166 166 169 173 175 173 164 165 178 191 194 189 156 156 188 230 241 211 186 168 168 176 192 193 187 197 209 218 226 224 220 234 231 65 337 283 253 244 241 226 212 213 231 233 218 212 215 214 241 257 256 253
166 166 161 146 124 154 157 159 164 164 175 190 185 173 175 179 175 167 171 188 179 180 181 177 174 172 170 174 179 184 184 181 181 178 171 172 173 167 168 174 157 152 159 166 159 138 169 178 116 131 183 233 225 153 138 91 99 185 213 202 197 203 211 220 224 215 216 228 228 256 272 247 231 258 254 231 193 199 223 230 218 213 219 237 257 259 261 261
154 156 159 151 135 157 160 159 168 171 179 184 178 172 177 180 174 165 161 223 198 186 179 168 163 161 170 183 189 187 182 182 183 178 175 174 166 145 130 138 151 154 151 145 132 114 133 138 119 153 186 231 34 128 126 88 81 244 234 209 204 210 215 222 230 222 220 213 205 233 241 197 177 214 224 238 230 221 235 238 233 237 239 244 251 254 261 264